FW3096 Weather Reports


Display with metric or nautical units.
time (UTC)temp
F
wind
direction
speed
MPH
gust
MPH
rain 1hr
in
rain 24hr
in
rain mn
in
humidity
%
barometer
mb
20260901233506 83 337 0.0 0.0 0.00 0.00 0.00 89 1013.7
20260901233005 83 337 0.0 0.0 0.00 0.00 0.00 89 1013.8
20260901232504 83 337 0.0 0.0 0.00 0.00 0.00 88 1014.2
20260901232006 84 337 0.0 0.0 0.00 0.00 0.00 88 1014.2
20260901231504 85 337 0.0 0.0 0.00 0.00 0.00 87 1014.2
20260901231006 85 337 0.0 0.0 0.00 0.00 0.00 86 1014.3
20260901230504 85 337 0.0 0.0 0.00 0.00 0.00 86 1014.2
20260901230008 85 337 0.0 0.0 0.00 0.00 0.00 86 1014.4
20260901225504 86 337 0.0 0.0 0.00 0.00 0.00 84 1014.3
20260901225004 86 337 0.0 0.0 0.00 0.00 0.00 83 1014.4
20260901224505 87 337 0.0 2.0 0.00 0.00 0.00 82 1014.2
20260901224005 86 337 0.0 1.0 0.00 0.00 0.00 81 1014.4
20260901223006 86 337 0.0 0.0 0.00 0.00 0.00 84 1014.3
20260901222506 86 337 0.0 0.0 0.00 0.00 0.00 82 1014.2
20260901222005 86 337 0.0 0.0 0.00 0.00 0.00 81 1014.2
20260901221505 86 337 0.0 0.0 0.00 0.00 0.00 81 1014.3
20260901221005 87 337 0.0 0.0 0.00 0.00 0.00 80 1014.3
20260901220504 87 337 0.0 0.0 0.00 0.00 0.00 78 1014.2
20260901220009 87 337 0.0 2.0 0.00 0.00 0.00 78 1014.1
20260901215504 87 337 0.0 2.0 0.00 0.00 0.00 78 1014.3
20260901215005 87 337 0.0 2.0 0.00 0.00 0.00 77 1014.5
20260901214506 87 337 1.0 3.0 0.00 0.00 0.00 77 1014.5
20260901214004 88 304 0.0 5.0 0.00 0.00 0.00 76 1014.6
20260901213504 89 140 0.0 3.0 0.00 0.00 0.00 77 1014.6
20260901212005 89 209 0.0 3.0 0.00 0.00 0.00 75 1014.5
20260901211505 89 177 1.0 3.0 0.00 0.00 0.00 73 1014.5
20260901211005 89 242 1.0 3.0 0.00 0.00 0.00 74 1014.5
20260901210504 89 161 1.0 6.0 0.00 0.00 0.00 73 1014.5
20260901205503 89 296 1.0 4.0 0.00 0.00 0.00 73 1014.5
20260901204005 90 24 2.0 5.0 0.00 0.00 0.00 72 1014.5
20260901203504 90 300 2.0 8.0 0.00 0.00 0.00 72 1014.6
20260901202504 89 206 2.0 5.0 0.00 0.00 0.00 73 1014.7
20260901202004 90 240 2.0 5.0 0.00 0.00 0.00 74 1014.7
20260901201503 89 288 1.0 5.0 0.00 0.00 0.00 74 1014.6
20260901200504 89 291 3.0 7.0 0.00 0.00 0.00 72 1014.7
20260901200006 89 175 1.0 8.0 0.00 0.00 0.00 73 1014.7
20260901195505 89 324 4.0 8.0 0.00 0.00 0.00 72 1014.8
20260901195006 89 296 3.0 7.0 0.00 0.00 0.00 73 1014.7
20260901194504 89 202 2.0 6.0 0.00 0.00 0.00 73 1014.8
20260901194007 89 269 2.0 6.0 0.00 0.00 0.00 74 1014.9
20260901193505 89 159 2.0 6.0 0.00 0.00 0.00 73 1015.0
20260901193006 89 267 1.0 5.0 0.00 0.00 0.00 74 1014.9
20260901192507 89 203 2.0 7.0 0.00 0.00 0.00 74 1015.2
20260901191506 89 215 1.0 5.0 0.00 0.00 0.00 73 1015.5
20260901190505 89 191 2.0 7.0 0.00 0.00 0.00 74 1015.2
20260901190006 88 302 3.0 7.0 0.00 0.00 0.00 73 1015.2
20260901185506 89 191 1.0 4.0 0.00 0.00 0.00 74 1015.4
20260901185005 89 137 1.0 4.0 0.00 0.00 0.00 71 1015.4
20260901184504 89 210 1.0 5.0 0.00 0.00 0.00 74 1015.5
20260901182506 89 355 1.0 5.0 0.00 0.00 0.00 75 1015.7
20260901181006 88 169 0.0 4.0 0.00 0.00 0.00 74 1015.5
20260901180504 88 299 2.0 8.0 0.00 0.00 0.00 75 1015.6
20260901180006 87 29 2.0 8.0 0.00 0.00 0.00 74 1015.6
20260901175504 87 188 0.0 4.0 0.00 0.00 0.00 76 1015.7
20260901175008 87 210 1.0 6.0 0.00 0.00 0.00 77 1015.8
20260901173507 86 196 1.0 5.0 0.00 0.00 0.00 78 1015.9
20260901173009 86 304 2.0 4.0 0.00 0.00 0.00 77 1016.0
20260901172505 85 161 1.0 3.0 0.00 0.00 0.00 81 1016.2
20260901172004 85 144 1.0 3.0 0.00 0.00 0.00 83 1016.2
20260901171007 82 325 0.0 0.0 0.00 0.00 0.00 89 1016.2
20260901170503 82 325 0.0 1.0 0.00 0.00 0.00 90 1016.1
20260901165004 81 325 0.0 0.0 0.00 0.00 0.00 90 1016.6
20260901164504 81 325 0.0 0.0 0.00 0.00 0.00 92 1016.6
20260901164010 81 325 0.0 0.0 0.00 0.00 0.00 93 1016.7
20260901163503 80 325 0.0 0.0 0.00 0.00 0.00 92 1016.7
20260901163005 80 325 0.0 0.0 0.00 0.00 0.00 92 1016.8
20260901162505 80 325 0.0 0.0 0.00 0.00 0.00 91 1017.0
20260901161504 81 216 0.0 0.0 0.00 0.00 0.00 92 1017.2
20260901161007 80 216 0.0 0.0 0.00 0.00 0.00 92 1017.2
20260901160504 79 216 0.0 0.0 0.00 0.00 0.00 92 1017.1
20260901160005 79 216 0.0 0.0 0.00 0.00 0.00 91 1016.9
20260901155505 80 216 0.0 0.0 0.00 0.00 0.00 89 1016.9
20260901155005 81 216 0.0 0.0 0.00 0.00 0.00 87 1017.0
20260901154503 82 216 0.0 1.0 0.00 0.00 0.00 85 1016.9
20260901153503 82 215 0.0 2.0 0.00 0.00 0.00 84 1017.0
20260901153005 81 197 0.0 0.0 0.00 0.00 0.00 85 1016.9
20260901152505 82 197 0.0 0.0 0.00 0.00 0.00 82 1017.0
20260901152005 83 197 0.0 3.0 0.00 0.00 0.00 83 1016.9
20260901151504 83 196 0.0 3.0 0.00 0.00 0.00 84 1016.9
20260901151009 83 209 0.0 2.0 0.00 0.00 0.00 85 1017.0
20260901150503 82 211 0.0 2.0 0.00 0.00 0.00 87 1016.9
20260901145505 82 208 0.0 2.0 0.00 0.00 0.00 86 1017.3
20260901145004 81 348 0.0 2.0 0.00 0.00 0.00 87 1017.3
20260901144503 80 239 1.0 2.0 0.00 0.00 0.00 88 1017.4
20260901144006 80 298 0.0 1.0 0.00 0.00 0.00 89 1017.1
20260901143006 80 296 1.0 4.0 0.00 0.00 0.00 90 1017.1
20260901142504 79 281 2.0 5.0 0.00 0.00 0.00 91 1017.1
20260901141503 78 335 1.0 3.0 0.00 0.00 0.00 94 1017.1
20260901141009 78 336 0.0 3.0 0.00 0.00 0.00 95 1017.1
20260901140006 76 283 0.0 3.0 0.00 0.00 0.00 97 1017.0
20260901135505 76 174 1.0 4.0 0.00 0.00 0.00 98 1017.0
20260901135004 76 275 1.0 4.0 0.00 0.00 0.00 98 1017.1
20260901134503 76 298 0.0 2.0 0.00 0.00 0.00 98 1017.0
20260901134006 76 298 0.0 2.0 0.00 0.00 0.00 98 1017.0
20260901133504 76 294 1.0 2.0 0.00 0.00 0.00 98 1017.0
20260901133005 76 265 0.0 2.0 0.00 0.00 0.00 99 1016.9
20260901132505 75 265 0.0 2.0 0.00 0.00 0.00 99 1016.9
20260901132010 75 265 0.0 4.0 0.00 0.00 0.00 99 1017.0
20260901131504 75 265 1.0 5.0 0.00 0.00 0.00 98 1017.1
20260901131006 75 313 0.0 5.0 0.00 0.00 0.00 99 1017.3
20260901130503 75 281 1.0 3.0 0.00 0.00 0.00 99 1017.3
20260901125505 75 292 1.0 4.0 0.00 0.00 0.00 99 1017.3
20260901124504 74 312 1.0 2.0 0.00 0.00 0.00 99 1017.4
20260901124006 74 312 0.0 0.0 0.00 0.00 0.00 99 1017.3
20260901123004 73 311 0.0 0.0 0.00 0.00 0.00 99 1017.4
20260901122505 73 312 0.0 0.0 0.00 0.00 0.00 99 1017.4
20260901122005 72 312 0.0 0.0 0.00 0.00 0.00 99 1017.4
20260901121503 72 312 0.0 0.0 0.00 0.00 0.00 98 1017.4
20260901120504 71 312 0.0 0.0 0.00 0.00 0.00 98 1017.5
20260901115504 71 312 0.0 0.0 0.00 0.00 0.00 98 1017.5
20260901115004 71 312 0.0 0.0 0.00 0.00 0.00 98 1017.7
20260901114505 70 312 0.0 0.0 0.00 0.00 0.00 98 1017.7
20260901114004 70 312 0.0 0.0 0.00 0.00 0.00 98 1017.7
20260901113503 70 312 0.0 0.0 0.00 0.00 0.00 98 1017.6
20260901113006 70 312 0.0 0.0 0.00 0.00 0.00 98 1017.6
20260901112503 70 312 0.0 0.0 0.00 0.00 0.00 98 1017.6
20260901112004 70 312 0.0 0.0 0.00 0.00 0.00 98 1017.5
20260901111506 70 312 0.0 0.0 0.00 0.00 0.00 98 1017.6
20260901111004 70 312 0.0 0.0 0.00 0.00 0.00 98 1017.5
20260901110503 70 312 0.0 0.0 0.00 0.00 0.00 98 1017.6
20260901110008 70 312 0.0 0.0 0.00 0.00 0.00 98 1017.6
20260901105503 70 312 0.0 0.0 0.00 0.00 0.00 98 1017.5
20260901105005 70 312 0.0 0.0 0.00 0.00 0.00 98 1017.3
20260901104505 70 312 0.0 0.0 0.00 0.00 0.00 97 1017.4
20260901104004 70 312 0.0 0.0 0.00 0.00 0.00 97 1017.6
20260901103505 70 312 0.0 0.0 0.00 0.00 0.00 97 1017.5
20260901103006 70 312 0.0 0.0 0.00 0.00 0.00 97 1017.5
20260901102503 70 312 0.0 0.0 0.00 0.00 0.00 97 1017.4
20260901102004 70 312 0.0 0.0 0.00 0.00 0.00 97 1017.3
20260901101004 70 312 0.0 0.0 0.00 0.00 0.00 98 1017.5
20260901100503 70 312 0.0 0.0 0.00 0.00 0.00 98 1017.4
20260901100006 70 312 0.0 0.0 0.00 0.00 0.00 98 1017.5
20260901095005 70 312 0.0 0.0 0.00 0.00 0.00 98 1017.4
20260901094503 70 312 0.0 0.0 0.00 0.00 0.00 98 1017.4
20260901094004 70 312 0.0 0.0 0.00 0.00 0.00 98 1017.5
20260901092503 70 312 0.0 0.0 0.00 0.00 0.00 97 1017.3
20260901092006 70 312 0.0 0.0 0.00 0.00 0.00 97 1017.4
20260901091503 70 312 0.0 0.0 0.00 0.00 0.00 97 1017.5
20260901091004 70 312 0.0 0.0 0.00 0.00 0.00 97 1017.5
20260901090505 70 312 0.0 0.0 0.00 0.00 0.00 97 1017.6
20260901085503 70 312 0.0 0.0 0.00 0.00 0.00 97 1017.7
20260901085006 70 312 0.0 0.0 0.00 0.00 0.00 97 1017.7
20260901084504 70 312 0.0 0.0 0.00 0.00 0.00 97 1017.7
20260901084004 70 312 0.0 0.0 0.00 0.00 0.00 97 1017.6
20260901083505 70 312 0.0 0.0 0.00 0.00 0.00 97 1017.6
20260901083005 70 312 0.0 0.0 0.00 0.00 0.00 97 1017.7
20260901082503 70 312 0.0 0.0 0.00 0.00 0.00 97 1017.7
20260901081503 70 312 0.0 0.0 0.00 0.00 0.00 97 1017.8
20260901081004 70 312 0.0 0.0 0.00 0.00 0.00 97 1017.8
20260901080503 70 312 0.0 0.0 0.00 0.00 0.00 97 1017.6
20260901080006 70 312 0.0 0.0 0.00 0.00 0.00 97 1017.6
20260901075503 70 312 0.0 0.0 0.00 0.00 0.00 97 1017.6
20260901075004 70 312 0.0 0.0 0.00 0.00 0.00 97 1017.6
20260901074504 70 312 0.0 0.0 0.00 0.00 0.00 97 1017.6
20260901074004 70 312 0.0 0.0 0.00 0.00 0.00 97 1017.7
20260901073005 70 312 0.0 0.0 0.00 0.00 0.00 97 1017.6
20260901072503 70 312 0.0 0.0 0.00 0.00 0.00 97 1017.6
20260901072003 70 312 0.0 0.0 0.00 0.00 0.00 97 1017.6
20260901071505 70 312 0.0 0.0 0.00 0.00 0.00 97 1017.7
20260901070005 70 312 0.0 0.0 0.00 0.00 0.00 97 1017.7
20260901065503 70 312 0.0 0.0 0.00 0.00 0.00 97 1018.0
20260901065003 70 312 0.0 0.0 0.00 0.00 0.00 97 1018.1
20260901064504 70 312 0.0 0.0 0.00 0.00 0.00 97 1018.2
20260901064003 70 312 0.0 0.0 0.00 0.00 0.00 97 1018.2
20260901063504 70 312 0.0 0.0 0.00 0.00 0.00 97 1018.1
20260901063004 70 312 0.0 0.0 0.00 0.00 0.00 97 1018.2
20260901062503 70 312 0.0 0.0 0.00 0.00 0.00 97 1018.2
20260901062005 70 312 0.0 0.0 0.00 0.00 0.00 97 1018.3
20260901061503 70 312 0.0 0.0 0.00 0.00 0.00 97 1018.2
20260901061004 70 312 0.0 0.0 0.00 0.00 0.00 97 1018.3
20260901060504 70 312 0.0 0.0 0.00 0.00 0.00 97 1018.3
20260901060005 70 312 0.0 0.0 0.00 0.00 0.00 97 1018.4
20260901055503 70 312 0.0 0.0 0.00 0.00 0.00 96 1018.5
20260901055005 70 312 0.0 0.0 0.00 0.00 0.00 96 1018.4
20260901054502 70 312 0.0 0.0 0.00 0.00 0.00 96 1018.5
20260901054004 70 312 0.0 0.0 0.00 0.00 0.00 96 1018.6
20260901052502 70 312 0.0 0.0 0.00 0.00 0.00 96 1018.8
20260901052006 70 312 0.0 0.0 0.00 0.00 0.00 96 1018.7
20260901051003 70 312 0.0 0.0 0.00 0.00 0.00 96 1018.8
20260901050504 70 312 0.0 0.0 0.00 0.00 0.00 96 1018.9
20260901050005 70 312 0.0 0.0 0.00 0.01 0.00 96 1018.9
20260901045502 70 312 0.0 0.0 0.00 0.01 0.00 96 1019.0
20260901045005 70 312 0.0 0.0 0.00 0.01 0.00 96 1019.1
20260901044502 70 312 0.0 0.0 0.00 0.01 0.00 96 1019.1
20260901044005 70 312 0.0 0.0 0.00 0.01 0.00 96 1019.1
20260901043503 70 312 0.0 0.0 0.00 0.01 0.00 96 1019.1
20260901042007 70 312 0.0 0.0 0.00 0.01 0.00 96 1019.1
20260901041504 70 312 0.0 0.0 0.00 0.01 0.00 95 1019.2
20260901041005 70 312 0.0 0.0 0.00 0.01 0.00 95 1019.2
20260901040505 70 312 0.0 0.0 0.00 0.01 0.00 95 1019.2
20260901040010 70 312 0.0 0.0 0.00 0.01 0.00 95 1019.4
20260901035505 70 312 0.0 0.0 0.00 0.11 0.01 95 1019.4
20260901035006 70 312 0.0 0.0 0.00 0.11 0.01 95 1019.4
20260901034005 70 312 0.0 0.0 0.00 0.11 0.01 95 1019.2
20260901033504 70 312 0.0 0.0 0.00 0.11 0.01 95 1019.2
20260901033006 70 312 0.0 0.0 0.00 0.11 0.01 95 1019.2
20260901032505 70 312 0.0 0.0 0.00 0.11 0.01 95 1019.2
20260901032005 70 312 0.0 0.0 0.00 0.11 0.01 95 1019.3
20260901031506 70 312 0.0 0.0 0.00 0.11 0.01 95 1019.4
20260901031005 70 312 0.0 0.0 0.00 0.11 0.01 94 1019.3
20260901030504 70 312 0.0 0.0 0.00 0.11 0.01 94 1019.3
20260901030009 70 312 0.0 0.0 0.00 0.11 0.01 94 1019.4
20260901025504 70 312 0.0 0.0 0.00 0.22 0.01 94 1019.4
20260901025005 70 312 0.0 0.0 0.00 0.22 0.01 94 1019.4
20260901024506 70 312 0.0 0.0 0.00 0.22 0.01 94 1019.3
20260901024005 70 312 0.0 0.0 0.00 0.22 0.01 94 1019.4
20260901023504 70 312 0.0 0.0 0.00 0.22 0.01 94 1019.3
20260901023006 70 312 0.0 0.0 0.00 0.22 0.01 94 1019.4
20260901021005 71 312 0.0 0.0 0.00 0.22 0.01 94 1019.4
20260901020504 71 312 0.0 0.0 0.00 0.22 0.01 94 1019.5
20260901020007 71 312 0.0 0.0 0.00 0.22 0.01 93 1019.5
20260901014506 72 312 0.0 0.0 0.00 0.22 0.01 93 1019.4
20260901014005 72 312 0.0 0.0 0.00 0.22 0.01 93 1019.4
20260901013504 72 312 0.0 0.0 0.00 0.22 0.01 93 1019.4
20260901013006 72 312 0.0 0.0 0.00 0.22 0.01 93 1019.4
20260901012504 72 312 0.0 0.0 0.00 0.22 0.01 93 1019.4
20260901012011 72 312 0.0 0.0 0.00 0.22 0.01 93 1019.3
20260901011506 72 312 0.0 0.0 0.00 0.22 0.01 93 1019.4
20260901011006 72 312 0.0 0.0 0.00 0.22 0.01 93 1019.3
20260901010505 72 312 0.0 0.0 0.00 0.22 0.01 93 1019.3
20260901010007 73 312 0.0 0.0 0.00 0.22 0.01 93 1019.2
20260901005504 73 312 0.0 0.0 0.00 0.22 0.01 93 1019.2
20260901005005 73 312 0.0 0.0 0.00 0.22 0.01 92 1019.3
20260901004506 73 312 0.0 0.0 0.00 0.22 0.01 92 1019.3
20260901004005 73 312 0.0 0.0 0.00 0.22 0.01 92 1019.3
20260901003504 73 312 0.0 0.0 0.00 0.22 0.01 92 1019.1
20260901003007 73 312 0.0 0.0 0.00 0.22 0.01 92 1019.1
20260901002504 73 312 0.0 0.0 0.00 0.22 0.01 92 1019.0
20260901002005 73 312 0.0 0.0 0.00 0.22 0.01 91 1018.9
20260901000506 74 312 0.0 0.0 0.00 0.22 0.01 91 1018.8
20260901000006 74 312 0.0 0.0 0.00 0.22 0.01 91 1018.7
20260831235504 74 312 0.0 0.0 0.00 0.22 0.01 91 1018.9
20260831234505 74 312 0.0 0.0 0.00 0.22 0.01 91 1019.1
20260831234009 74 312 0.0 0.0 0.00 0.22 0.01 91 1019.1